Regional Weather Roundup
Issued by NWS

Home | Current Version | Previous Version | Graphics & Text | Print | Product List | Glossary On
Versions: 1 2 3 4 5 6 7 8 9 10 11 12 13 14 15 16 17 18 19 20 21 22 23 24 25 26 27
000
ASUS45 KBOU 191807
RWRCO

WEATHER ROUNDUP FOR COLORADO
NATIONAL WEATHER SERVICE DENVER/BOULDER CO
1200 PM MDT THU OCT 19 2017

NOTE: "FAIR" INDICATES FEW OR NO CLOUDS BELOW 12000 FEET WITH NO
SIGNIFICANT WEATHER AND/OR OBSTRUCTIONS TO VISIBILITY.

COZ001>005-013-030-031-191900-
...NORTHWEST COLORADO...

CITY           SKY/WX    TMP DP  RH WIND       PRES   REMARKS
CRAIG          FAIR      66  14  13 MISG      30.11F
HAYDEN         FAIR      63  17  17 E7        30.14F
MEEKER         FAIR      64  19  17 VRB3      30.11F
RABBIT EARS PA FAIR      52  19  28 SW7       30.34F
STEAMBOAT SPGS FAIR      57  19  22 CALM      30.15F
WALDEN         NOT AVBL
$$

COZ006>008-011-191900-
...WEST CENTRAL VALLEYS...

CITY           SKY/WX    TMP DP  RH WIND       PRES   REMARKS
GRAND JUNCTION FAIR      63  16  16 SE6       30.08F
MONTROSE       FAIR      64  22  20 NW6       30.13F
EAGLE          FAIR      51  16  24 CALM      30.21F
RIFLE          FAIR      62  18  18 CALM      30.11F
DELTA          FAIR      65  17  16 CALM      30.10F
NUCLA          FAIR      64  18  16 CALM      30.16F
$$

COZ017>023-064>068-191900-
...SOUTHWEST COLORADO...

CITY           SKY/WX    TMP DP  RH WIND       PRES   REMARKS
DURANGO        FAIR      67  22  18 MISG      30.18F
CORTEZ         FAIR      69  25  19 MISG      30.14F
PAGOSA SPRINGS FAIR      65  13  13 CALM      30.24F HAZE
TELLURIDE      FAIR      60  21  22 CALM      30.30F
WOLF CREEK PAS FAIR      45  14  29 S12       30.50F
$$

COZ009-010-012-014-032>034-037-058>063-191900-
...CENTRAL COLORADO...

CITY           SKY/WX    TMP DP  RH WIND       PRES   REMARKS
ASPEN          FAIR      62  17  17 VRB5      30.19F
BUENA VISTA    FAIR      58   8  13 SE5       30.23F
COPPER MTN     FAIR      54  19  26 SW9       30.44F
BERTHOUD PASS  FAIR      43  34  70 W10G16    30.46F
COTTONWOOD PAS FAIR      61   9  12 E6        30.33S
GUNNISON       FAIR      50  14  23 CALM      30.26F
KREMMLING      FAIR      50  18  27 CALM      30.24F
LEADVILLE      FAIR      54  10  17 VRB3      30.30F
SALIDA         NOT AVBL
SUNLIGHT       FAIR      52  18  25 CALM      30.40S
WILKERSON PASS FAIR      50   5  16 SW7       30.43F
$$

COZ069>075-191900-
...SAN LUIS VALLEY/SANGRE DE CRISTO MOUNTAINS...

CITY           SKY/WX    TMP DP  RH WIND       PRES   REMARKS
ALAMOSA        FAIR      56  17  21 VRB3      30.24F
DEL NORTE      FAIR      57  15  19 E7        30.26F
LA VETA PASS   FAIR      55  19  24 SW9       30.47S
SAGUACHE       FAIR      57  18  21 SE5       30.27F
$$

COZ035-036-038>040-191900-
...NORTHERN COLORADO FRONT RANGE...

CITY           SKY/WX    TMP DP  RH WIND       PRES   REMARKS
DENVER INTL AP PTSUNNY   70  20  15 S5        30.04F
DMNS CITY PARK   N/A     70  17  13 NW3G9     30.03F
AURORA         PTSUNNY   71  24  17 SW5       30.05F
FRONT RANGE AP NOT AVBL
ERIE MUNI ARPT FAIR      67  19  15 CALM      30.08F
BOULDER MUN AP FAIR      68  25  19 CALM      30.04F
CENTENNIAL     PTSUNNY   73  13  10 S5        30.06F
BROOMFIELD     PTSUNNY   68  18  14 NE3       30.06F
FORT COLLINS   FAIR      64  34  32 S5        30.04F
LONGMONT       FAIR      69  24  18 CALM      30.04F
$$

COZ041-046-047-076>085-087-088-191900-
...PIKES PEAK/PALMER DIVIDE AND SOUTHERN FOOTHILLS...

CITY           SKY/WX    TMP DP  RH WIND       PRES   REMARKS
COLO. SPRINGS  FAIR      69  27  20 S12       30.12F
A. F. ACADEMY  FAIR      68  23  18 S9        30.12F
SCHRIEVER AFB  FAIR      69  22  16 S10       30.12F
CHEYENNE MTN   NOT AVBL
ELLICOTT       FAIR     N/A N/A N/A S13       30.11F
FALCON         FAIR      71  18  13 MISG      30.16F
FORT CARSON    FAIR      67  26  22 S6        30.10F
LIMON          FAIR      72  30  21 S16       30.08F
MONUMENT HILL  FAIR      70  19  14 S12       30.16F
CANON CITY     FAIR      72  21  15 W8        30.07F
WALSENBURG     NOT AVBL
TRINIDAD       FAIR      70  25  18 E8        30.10F
$$

COZ042>045-048>051-090-091-191900-
...NORTHEAST COLORADO...

CITY           SKY/WX    TMP DP  RH WIND       PRES   REMARKS
GREELEY ARPT   FAIR      59  32  36 CALM      30.04F
AKRON          FAIR      78  28  16 S17       30.03F
BURLINGTON     FAIR      78  44  29 S18G28    30.06F
WRAY           FAIR      79  39  24 S18       30.01F
YUMA           NOT AVBL
STERLING       FAIR      68  36  30 SW6       30.00F
HOLYOKE        FAIR      79  39  24 S18       30.01F
FORT MORGAN    FAIR      66  27  22 SW5       30.03F
$$

COZ086-089-092>099-191900-
...SOUTHEAST COLORADO...

CITY           SKY/WX    TMP DP  RH WIND       PRES   REMARKS
PUEBLO         FAIR      67  29  24 VRB3      30.05F
LA JUNTA       FAIR      66  31  27 CALM      30.06F
LAMAR          FAIR      69  36  29 NE6       30.04F
SPRINGFIELD    NOT AVBL
$$




USA.gov is the U.S. government's official web portal to all federal, state and local government web resources and services.